Chillicothe, MO

8:54 PM CST on November 24, 2017 (GMT -0600)
Chillicothe

Weather History for KCDJ - April, 2015

Change the Weather History Date:

Tuesday, April 14, 2015

  Actual Average (KIRK) Record (KIRK)
Temperature  
Mean Temperature 56 °F -  
Max Temperature 68 °F 63 °F 86 °F (2006)
Min Temperature 46 °F 40 °F 22 °F (1928)
Degree Days  
Heating Degree Days 9    
Growing Degree Days 6 (Base 50)    
Moisture  
Dew Point 37 °F    
Average Humidity 51    
Maximum Humidity 86    
Minimum Humidity 26    
Precipitation  
Precipitation 0.00 in - - ()
Sea Level Pressure  
Sea Level Pressure 30.22 in    
Wind  
Wind Speed 3 mph (ENE)    
Max Wind Speed 10 mph    
Max Gust Speed 16 mph    
Averages and records for this station are not official NWS values.
T = Trace of Precipitation, MM = Missing Value Source: NWS Daily Summary

Daily Weather History Graph

Daily Weather History Graph

Search for Another Location

Airport or City:

Trip Planner

Search our weather history database for the weather conditions in past years. The results will help you decide how hot, cold, wet, or windy it might be!

Date:

Astronomy

Apr. 14, 2015 Rise Set
Actual Time 6:38 AM CDT 7:51 PM CDT
Civil Twilight 6:10 AM CDT 8:19 PM CDT
Nautical Twilight 5:37 AM CDT 8:52 PM CDT
Astronomical Twilight 5:02 AM CDT 9:27 PM CDT
Moon 3:57 AM CDT (4/14) 3:19 PM CDT (4/14)
Length of Visible Light 14h 08m
Length of Day
13h 12m
Waning Crescent, 22% of the Moon is Illuminated
Apr 14
Waning Crescent
Apr 18
New
Apr 25
First Quarter
May 3
Full
May 11
Last Quarter

Hourly Weather History & Observations

Time (CDT) Temp. Dew Point Humidity Pressure Visibility Wind Dir Wind Speed Gust Speed Precip Events Conditions
12:52 AM 50.0 °F 39.9 °F 68% 30.24 in - NW 3.5 mph - N/A   Unknown
1:52 AM 50.0 °F 41.0 °F 71% 30.24 in - Calm Calm - N/A   Unknown
2:52 AM 48.9 °F 41.0 °F 74% 30.24 in - Calm Calm - N/A   Unknown
3:52 AM 48.0 °F 41.0 °F 77% 30.24 in - Calm Calm - N/A   Unknown
4:52 AM 46.9 °F 43.0 °F 86% 30.27 in - Calm Calm - N/A   Unknown
5:52 AM 46.0 °F 42.1 °F 86% 30.27 in - Calm Calm - N/A   Unknown
6:52 AM 46.9 °F 42.1 °F 83% 30.28 in - Calm Calm - N/A   Unknown
7:52 AM 48.9 °F 41.0 °F 74% 30.29 in - Calm Calm - N/A   Unknown
8:52 AM 52.0 °F 41.0 °F 66% 30.30 in - North 3.5 mph - N/A   Unknown
9:52 AM 57.0 °F 37.9 °F 49% 30.28 in - NE 5.8 mph - N/A   Unknown
10:52 AM 61.0 °F 37.0 °F 41% 30.29 in - East 4.6 mph - N/A   Unknown
11:52 AM 64.0 °F 34.0 °F 33% 30.27 in - East 9.2 mph - N/A   Unknown
12:52 PM 64.9 °F 33.1 °F 31% 30.25 in - East 10.4 mph - N/A   Unknown
1:52 PM 66.0 °F 33.1 °F 29% 30.23 in - East 9.2 mph - N/A   Unknown
2:52 PM 66.9 °F 30.9 °F 26% 30.22 in - East 10.4 mph 16.1 mph N/A   Unknown
3:52 PM 66.0 °F 30.9 °F 27% 30.20 in - East 8.1 mph - N/A   Unknown
4:52 PM 66.0 °F 32.0 °F 28% 30.18 in - East 6.9 mph - N/A   Unknown
5:52 PM 66.0 °F 33.1 °F 29% 30.17 in - East 5.8 mph - N/A   Unknown
6:52 PM 64.9 °F 32.0 °F 29% 30.15 in - ENE 5.8 mph - N/A   Unknown
7:52 PM 62.1 °F 32.0 °F 32% 30.13 in - NE 3.5 mph - N/A   Unknown
8:52 PM 59.0 °F 33.1 °F 38% 30.14 in - ENE 3.5 mph - N/A   Unknown
9:52 PM 57.0 °F 37.0 °F 47% 30.14 in - Calm Calm - N/A   Unknown
10:52 PM 57.9 °F 36.0 °F 44% 30.13 in - Calm Calm - N/A   Unknown
11:52 PM 57.9 °F 36.0 °F 44% 30.12 in - Calm Calm - N/A   Unknown